078  
ASUS41 KCTP 240910  
RWRCTP  
 
REGIONAL WEATHER ROUNDUP  
NATIONAL WEATHER SERVICE STATE COLLEGE PA  
400 AM EST WED JAN 24 2018  
 
NOTE: "FAIR" INDICATES FEW OR NO CLOUDS BELOW 12,000 FEET WITH NO  
SIGNIFICANT WEATHER AND/OR S TO VISIBILITY
.  
 
* = STATION THAT DOES NOT REPORT PRECIPITATION /E.G. RAIN...SNOW...ETC/  
THUNDER OR FOG.
 
 
PAZ002>004-007>009-013>016-020>023-029>032-241000-  
WESTERN PENNSYLVANIA  
 
CITY SKY/WX TMP DP RH WIND PRES REMARKS
 
ERIE CLOUDY 26 20 77 W13 30.04R WCI 15  
MEADVILLE CLOUDY 23 21 92 W10G20 30.00R WCI 12  
FRANKLIN* MIX PCPN 25 23 92 NW12G18 29.98R WCI 14  
NEW CASTLE FLURRIES 30 27 88 W12G17 30.02R  
BEAVER COUNTY NOT AVBL  
BUTLER* FLURRIES 30 27 88 W8G16 30.00R  
PITTSBURGH INT FLURRIES 32 26 78 W16G26 30.00R  
PITTSBURGH CLOUDY 31 24 75 NW10G25 29.99R  
INDIANA* CLOUDY 32 28 86 NW12G18 30.00R  
LATROBE MIX PCPN 32 27 80 W14G21 29.99R  
WASHINGTON CO* FLURRIES 33 26 75 W14G25 30.04R  

 
 
PAZ004>006-010>012-017>019-024>028-033>037-041-042-045-046-049>053-241000-  
CENTRAL PENNSYLVANIA  
 
CITY SKY/WX TMP DP RH WIND PRES REMARKS
 
BRADFORD FLURRIES 24 20 84 W20G33 29.88R WCI 10  
DUBOIS N/A N/A N/A N/A MISG 29.90R  
CLEARFIELD CLOUDY 31 25 78 W13G25 29.91R  
JOHNSTOWN CLOUDY 30 26 85 W17 29.88R  
ALTOONA CLOUDY 35 27 72 NW20G35 29.90R  
STATE COLLEGE CLOUDY 33 28 80 W17G28 29.90R  
WILLIAMSPORT MIX PCPN 37 28 70 W18G28 29.87R  
SELINSGROVE CLOUDY 38 28 67 W9 29.88R  
FT INDIANTOWN CLOUDY 41 30 64 W14G29 29.85R  
CAPITAL CITY CLOUDY 45 28 51 NW14G30 29.87R  
HARRISBURG CLOUDY 42 30 62 NW14 29.87R  
YORK CLOUDY 43 29 57 W13G25 29.88R  

 
 
PAZ038>040-043-044-047-048-054-055-060>062-067>071-241000-  
EASTERN PENNSYLVANIA  
 
CITY SKY/WX TMP DP RH WIND PRES REMARKS
 
SCRANTON CLOUDY 37 29 72 W9 29.79R  
MOUNT POCONO CLOUDY 33 27 78 W22G31 29.71R  
ALLENTOWN CLOUDY 41 29 62 W12G18 29.81R  
QUAKERTOWN* NOT AVBL  
READING CLOUDY 42 32 67 W13G21 29.84R  
LANCASTER CLOUDY 43 29 57 W26G39 29.83S  
COATESVILLE CLOUDY 43 30 61 W15G25 29.85R  
POTTSTOWN CLOUDY 41 29 62 W9G18 29.85R  
BLUE BELL CLOUDY 36 32 87 CALM 29.86R  
DOYLESTOWN FAIR 40 30 67 W6 29.81R  
WILLOW GROVE NOT AVBL  
NORTH PHILA MOCLDY 42 31 64 SW7 29.85R  
PHILADELPHIA CLOUDY 43 30 60 SW13 29.86R  

 
 
 
CLICK HERE TO GO TO PREVIOUS BULLETINS.

The Nexlab PA Page Main Text Page